Time,TemperatureF,DewpointF,PressureIn,WindDirection,WindDirectionDegrees,WindSpeedMPH,WindSpeedGustMPH,Humidity,HourlyPrecipIn,Conditions,Clouds,dailyrainin,SoftwareType,DateUTC
2013-03-12 00:00:00,42.5,42.5,0.00,North,11,0.0,0.2,100,0.00,CLR,CLR,0.00,WeatherDisplay:10.37,2013-03-12 04:00:00,
2013-03-12 00:06:00,42.5,42.5,0.00,NNW,344,0.0,0.0,100,0.00,CLR,CLR,0.00,WeatherDisplay:10.37,2013-03-12 04:06:00,
2013-03-12 00:11:00,42.4,42.4,0.00,ENE,69,0.0,0.0,100,0.00,CLR,CLR,0.00,WeatherDisplay:10.37,2013-03-12 04:11:00,
2013-03-12 00:16:00,42.4,42.4,0.00,ENE,69,0.0,0.0,100,0.00,CLR,CLR,0.00,WeatherDisplay:10.37,2013-03-12 04:16:00,
2013-03-12 00:21:00,42.4,42.4,0.00,ENE,69,0.0,0.0,100,0.00,CLR,CLR,0.00,WeatherDisplay:10.37,2013-03-12 04:21:00,
2013-03-12 00:27:00,42.4,42.4,0.00,ENE,69,0.0,0.0,100,0.00,CLR,CLR,0.00,WeatherDisplay:10.37,2013-03-12 04:27:00,
2013-03-12 00:32:00,42.3,42.3,0.00,ENE,69,0.0,0.0,100,0.00,CLR,CLR,0.00,WeatherDisplay:10.37,2013-03-12 04:32:00,
2013-03-12 00:37:00,42.3,42.3,0.00,SW,223,0.0,0.0,100,0.00,CLR,CLR,0.00,WeatherDisplay:10.37,2013-03-12 04:37:00,
2013-03-12 00:42:00,42.2,42.2,0.00,SW,223,0.0,0.0,100,0.00,CLR,CLR,0.00,WeatherDisplay:10.37,2013-03-12 04:42:00,
2013-03-12 00:48:00,42.2,42.2,0.00,SW,223,0.0,0.0,100,0.00,CLR,CLR,0.00,WeatherDisplay:10.37,2013-03-12 04:48:00,
2013-03-12 00:53:00,42.0,42.0,0.00,SW,223,0.0,0.0,100,0.00,CLR,CLR,0.00,WeatherDisplay:10.37,2013-03-12 04:53:00,
2013-03-12 00:58:00,42.0,42.0,0.00,SW,223,0.0,0.0,100,0.00,CLR,CLR,0.00,WeatherDisplay:10.37,2013-03-12 04:58:00,
2013-03-12 01:03:00,42.0,42.0,0.00,NE,41,1.2,1.2,100,0.00,CLR,CLR,0.00,WeatherDisplay:10.37,2013-03-12 05:03:00,
2013-03-12 01:08:00,41.9,41.9,0.00,NE,41,0.0,0.0,100,0.00,CLR,CLR,0.00,WeatherDisplay:10.37,2013-03-12 05:08:00,
2013-03-12 01:13:00,42.0,42.0,0.00,NE,41,0.0,0.0,100,0.00,CLR,CLR,0.00,WeatherDisplay:10.37,2013-03-12 05:13:00,
2013-03-12 01:19:00,42.0,42.0,0.00,NE,41,0.0,0.0,100,0.00,CLR,CLR,0.00,WeatherDisplay:10.37,2013-03-12 05:19:00,
2013-03-12 01:24:00,42.0,42.0,0.00,NE,41,1.2,1.2,100,0.00,CLR,CLR,0.00,WeatherDisplay:10.37,2013-03-12 05:24:00,
2013-03-12 01:29:00,42.1,42.1,0.00,NE,40,0.0,0.0,100,0.00,CLR,CLR,0.00,WeatherDisplay:10.37,2013-03-12 05:29:00,
2013-03-12 01:34:00,42.1,42.1,0.00,NE,37,0.0,0.0,100,0.00,CLR,CLR,0.00,WeatherDisplay:10.37,2013-03-12 05:34:00,
2013-03-12 01:40:00,42.0,42.0,0.00,NE,37,0.0,0.0,100,0.00,CLR,CLR,0.00,WeatherDisplay:10.37,2013-03-12 05:40:00,
2013-03-12 01:45:00,42.0,42.0,0.00,NE,37,0.0,0.0,100,0.00,CLR,CLR,0.00,WeatherDisplay:10.37,2013-03-12 05:45:00,
2013-03-12 01:50:00,42.0,42.0,0.00,NE,37,0.0,0.0,100,0.00,CLR,CLR,0.00,WeatherDisplay:10.37,2013-03-12 05:50:00,
2013-03-12 01:56:00,42.0,42.0,0.00,NE,37,0.0,0.0,100,0.00,CLR,CLR,0.00,WeatherDisplay:10.37,2013-03-12 05:56:00,
2013-03-12 02:01:00,42.1,42.1,0.00,NE,37,0.0,0.0,100,0.00,CLR,CLR,0.00,WeatherDisplay:10.37,2013-03-12 06:01:00,
2013-03-12 02:07:00,42.1,42.1,0.00,NNE,21,2.3,2.3,100,0.00,CLR,CLR,0.00,WeatherDisplay:10.37,2013-03-12 06:07:00,
2013-03-12 02:12:00,42.2,42.2,0.00,NNE,21,0.0,0.0,100,0.00,CLR,CLR,0.00,WeatherDisplay:10.37,2013-03-12 06:12:00,
2013-03-12 02:17:00,42.2,42.2,0.00,NNE,20,1.2,1.2,100,0.00,CLR,CLR,0.00,WeatherDisplay:10.37,2013-03-12 06:17:00,
2013-03-12 02:22:00,42.3,42.3,0.00,North,8,2.3,2.3,100,0.00,CLR,CLR,0.00,WeatherDisplay:10.37,2013-03-12 06:22:00,
2013-03-12 02:27:00,42.3,42.3,0.00,North,8,0.0,0.0,100,0.00,CLR,CLR,0.00,WeatherDisplay:10.37,2013-03-12 06:27:00,
2013-03-12 02:32:00,42.4,42.4,0.00,NNE,31,0.0,0.0,100,0.00,CLR,CLR,0.00,WeatherDisplay:10.37,2013-03-12 06:32:00,
2013-03-12 02:37:00,42.4,42.4,0.00,NNE,31,0.0,0.0,100,0.00,CLR,CLR,0.00,WeatherDisplay:10.37,2013-03-12 06:37:00,
2013-03-12 02:43:00,42.4,42.4,0.00,NE,38,3.5,3.5,100,0.00,CLR,CLR,0.00,WeatherDisplay:10.37,2013-03-12 06:43:00,
2013-03-12 02:48:00,42.5,42.5,0.00,West,267,1.2,1.2,100,0.00,CLR,CLR,0.00,WeatherDisplay:10.37,2013-03-12 06:48:00,
2013-03-12 02:53:00,42.5,42.5,0.00,SE,130,0.0,0.0,100,0.00,CLR,CLR,0.00,WeatherDisplay:10.37,2013-03-12 06:53:00,
2013-03-12 02:58:00,42.6,42.6,0.00,NNE,27,0.7,0.7,100,0.00,CLR,CLR,0.00,WeatherDisplay:10.37,2013-03-12 06:58:00,
2013-03-12 03:03:00,42.6,42.6,0.00,NNE,27,0.0,0.0,100,0.00,CLR,CLR,0.00,WeatherDisplay:10.37,2013-03-12 07:03:00,
2013-03-12 03:08:00,42.6,42.6,0.00,North,10,0.0,0.0,100,0.00,CLR,CLR,0.00,WeatherDisplay:10.37,2013-03-12 07:08:00,
2013-03-12 03:13:00,42.7,42.7,0.00,North,349,0.0,0.2,100,0.00,CLR,CLR,0.00,WeatherDisplay:10.37,2013-03-12 07:13:00,
2013-03-12 03:19:00,42.6,42.6,0.00,ESE,112,1.2,1.2,100,0.00,CLR,CLR,0.00,WeatherDisplay:10.37,2013-03-12 07:19:00,
2013-03-12 03:24:00,42.7,42.7,0.00,ESE,112,0.0,0.0,100,0.00,CLR,CLR,0.00,WeatherDisplay:10.37,2013-03-12 07:24:00,
2013-03-12 03:29:00,42.7,42.7,0.00,East,79,2.3,2.3,100,0.00,CLR,CLR,0.00,WeatherDisplay:10.37,2013-03-12 07:29:00,
2013-03-12 03:35:00,42.7,42.7,0.00,ENE,75,0.0,0.0,100,0.00,CLR,CLR,0.00,WeatherDisplay:10.37,2013-03-12 07:35:00,
2013-03-12 03:40:00,42.7,42.7,0.00,NE,41,1.2,1.2,100,0.00,CLR,CLR,0.00,WeatherDisplay:10.37,2013-03-12 07:40:00,
2013-03-12 03:45:00,42.7,42.7,0.00,NNE,20,1.7,1.7,100,0.00,CLR,CLR,0.00,WeatherDisplay:10.37,2013-03-12 07:45:00,
2013-03-12 03:50:00,42.7,42.7,0.00,ESE,120,0.0,0.0,100,0.00,CLR,CLR,0.00,WeatherDisplay:10.37,2013-03-12 07:50:00,
2013-03-12 03:55:00,42.7,42.7,0.00,North,350,0.0,0.0,100,0.00,CLR,CLR,0.00,WeatherDisplay:10.37,2013-03-12 07:55:00,
2013-03-12 04:01:00,42.8,42.8,0.00,NNW,328,1.2,1.2,100,0.00,CLR,CLR,0.00,WeatherDisplay:10.37,2013-03-12 08:01:00,
2013-03-12 04:06:00,42.9,42.9,0.00,NE,35,0.0,0.0,100,0.00,CLR,CLR,0.00,WeatherDisplay:10.37,2013-03-12 08:06:00,
2013-03-12 04:11:00,42.9,42.9,0.00,NNE,30,1.2,1.2,100,0.00,CLR,CLR,0.00,WeatherDisplay:10.37,2013-03-12 08:11:00,
2013-03-12 04:17:00,43.0,43.0,0.00,NE,42,0.0,0.0,100,0.00,CLR,CLR,0.00,WeatherDisplay:10.37,2013-03-12 08:17:00,
2013-03-12 04:22:00,43.0,43.0,0.00,NE,42,0.0,0.0,100,0.00,CLR,CLR,0.00,WeatherDisplay:10.37,2013-03-12 08:22:00,
2013-03-12 04:27:00,43.0,43.0,0.00,NE,42,0.0,0.0,100,0.00,CLR,CLR,0.00,WeatherDisplay:10.37,2013-03-12 08:27:00,
2013-03-12 04:32:00,43.1,43.1,0.00,NE,42,0.0,0.0,100,0.00,CLR,CLR,0.00,WeatherDisplay:10.37,2013-03-12 08:32:00,
2013-03-12 04:37:00,43.1,43.1,0.00,NNE,32,0.0,0.0,100,0.00,CLR,CLR,0.00,WeatherDisplay:10.37,2013-03-12 08:37:00,
2013-03-12 04:43:00,43.1,43.1,0.00,SSW,208,0.0,0.5,100,0.00,CLR,CLR,0.00,WeatherDisplay:10.37,2013-03-12 08:43:00,
2013-03-12 04:48:00,43.1,43.1,0.00,SSW,208,0.0,0.1,100,0.00,CLR,CLR,0.00,WeatherDisplay:10.37,2013-03-12 08:48:00,
2013-03-12 04:53:00,43.2,43.2,0.00,NE,47,2.9,2.9,100,0.00,CLR,CLR,0.00,WeatherDisplay:10.37,2013-03-12 08:53:00,
2013-03-12 04:58:00,43.2,43.2,0.00,NE,54,0.0,0.0,100,0.00,CLR,CLR,0.00,WeatherDisplay:10.37,2013-03-12 08:58:00,
2013-03-12 05:03:00,43.2,43.2,0.00,NNE,28,0.0,0.0,100,0.00,CLR,CLR,0.00,WeatherDisplay:10.37,2013-03-12 09:03:00,
2013-03-12 05:09:00,43.2,43.2,0.00,NNE,28,0.0,0.0,100,0.00,CLR,CLR,0.00,WeatherDisplay:10.37,2013-03-12 09:09:00,
2013-03-12 05:14:00,43.2,43.2,0.00,NNE,28,0.0,0.0,100,0.00,CLR,CLR,0.00,WeatherDisplay:10.37,2013-03-12 09:14:00,
2013-03-12 05:19:00,43.2,43.2,0.00,NNE,28,0.0,0.0,100,0.00,CLR,CLR,0.00,WeatherDisplay:10.37,2013-03-12 09:19:00,
2013-03-12 05:24:00,43.3,43.3,0.00,NNE,29,0.0,0.0,100,0.00,CLR,CLR,0.00,WeatherDisplay:10.37,2013-03-12 09:24:00,
2013-03-12 05:29:00,43.3,43.3,0.00,NNE,29,0.0,0.0,100,0.00,CLR,CLR,0.00,WeatherDisplay:10.37,2013-03-12 09:29:00,
2013-03-12 05:35:00,43.3,43.3,0.00,NNE,24,0.0,0.0,100,0.00,CLR,CLR,0.00,WeatherDisplay:10.37,2013-03-12 09:35:00,
2013-03-12 05:40:00,43.4,43.4,0.00,NNE,24,0.0,0.0,100,0.00,CLR,CLR,0.00,WeatherDisplay:10.37,2013-03-12 09:40:00,
2013-03-12 05:45:00,43.3,43.3,0.00,NNE,24,0.0,0.0,100,0.00,CLR,CLR,0.00,WeatherDisplay:10.37,2013-03-12 09:45:00,
2013-03-12 05:50:00,43.3,43.3,0.00,NNE,24,0.0,0.0,100,0.00,CLR,CLR,0.00,WeatherDisplay:10.37,2013-03-12 09:50:00,
2013-03-12 05:56:00,43.4,43.4,0.00,NNE,24,0.0,0.0,100,0.00,CLR,CLR,0.00,WeatherDisplay:10.37,2013-03-12 09:56:00,
2013-03-12 06:01:00,43.4,43.4,0.00,NE,48,1.6,1.6,100,0.00,CLR,CLR,0.00,WeatherDisplay:10.37,2013-03-12 10:01:00,
2013-03-12 06:07:00,43.4,43.4,0.00,NE,35,0.0,0.0,100,0.00,CLR,CLR,0.00,WeatherDisplay:10.37,2013-03-12 10:07:00,
2013-03-12 06:12:00,43.4,43.4,0.00,NE,56,1.2,1.2,100,0.00,CLR,CLR,0.00,WeatherDisplay:10.37,2013-03-12 10:12:00,
2013-03-12 06:17:00,43.5,43.5,0.00,NNE,23,0.0,0.0,100,0.00,CLR,CLR,0.00,WeatherDisplay:10.37,2013-03-12 10:17:00,
2013-03-12 06:22:00,43.5,43.5,0.00,NE,41,1.2,1.2,100,0.00,CLR,CLR,0.00,WeatherDisplay:10.37,2013-03-12 10:22:00,
2013-03-12 06:27:00,43.4,43.4,0.00,ENE,68,0.0,0.0,100,0.00,CLR,CLR,0.00,WeatherDisplay:10.37,2013-03-12 10:27:00,
2013-03-12 06:33:00,43.4,43.4,0.00,ENE,68,0.0,0.0,100,0.00,CLR,CLR,0.00,WeatherDisplay:10.37,2013-03-12 10:33:00,
2013-03-12 06:38:00,43.4,43.4,0.00,ENE,68,0.0,0.0,100,0.00,CLR,CLR,0.00,WeatherDisplay:10.37,2013-03-12 10:38:00,
2013-03-12 06:43:00,43.4,43.4,0.00,NE,34,1.2,1.2,100,0.00,CLR,CLR,0.00,WeatherDisplay:10.37,2013-03-12 10:43:00,
2013-03-12 06:49:00,43.4,43.4,0.00,ENE,76,0.0,0.5,100,0.00,CLR,CLR,0.00,WeatherDisplay:10.37,2013-03-12 10:49:00,
2013-03-12 06:54:00,43.5,43.5,0.00,ENE,59,1.2,1.2,100,0.00,CLR,CLR,0.00,WeatherDisplay:10.37,2013-03-12 10:54:00,
2013-03-12 06:59:00,43.6,43.6,0.00,ENE,62,2.3,2.3,100,0.00,CLR,CLR,0.00,WeatherDisplay:10.37,2013-03-12 10:59:00,
2013-03-12 07:05:00,43.7,43.7,0.00,NE,42,1.2,1.2,100,0.00,CLR,CLR,0.00,WeatherDisplay:10.37,2013-03-12 11:05:00,
2013-03-12 07:10:00,43.8,43.8,0.00,NE,42,0.0,0.0,100,0.00,CLR,CLR,0.00,WeatherDisplay:10.37,2013-03-12 11:10:00,
2013-03-12 07:15:00,43.7,43.7,0.00,NE,42,0.0,0.0,100,0.00,CLR,CLR,0.00,WeatherDisplay:10.37,2013-03-12 11:15:00,
2013-03-12 07:20:00,43.8,43.8,0.00,NE,42,0.0,0.0,100,0.00,CLR,CLR,0.00,WeatherDisplay:10.37,2013-03-12 11:20:00,
2013-03-12 07:27:00,43.9,43.9,0.00,NE,42,0.0,0.0,100,0.00,CLR,CLR,0.00,WeatherDisplay:10.37,2013-03-12 11:27:00,
2013-03-12 07:32:00,44.0,44.0,0.00,ENE,59,2.3,2.3,100,0.00,CLR,CLR,0.00,WeatherDisplay:10.37,2013-03-12 11:32:00,
2013-03-12 07:37:00,44.2,44.2,0.00,NNE,27,0.0,0.0,100,0.00,CLR,CLR,0.00,WeatherDisplay:10.37,2013-03-12 11:37:00,
2013-03-12 07:42:00,44.2,44.2,0.00,NNE,27,0.0,0.0,100,0.00,CLR,CLR,0.00,WeatherDisplay:10.37,2013-03-12 11:42:00,
2013-03-12 07:47:00,44.3,44.3,0.00,NE,45,1.2,0.0,100,0.00,CLR,CLR,0.00,WeatherDisplay:10.37,2013-03-12 11:47:00,
2013-03-12 07:52:00,44.4,44.4,0.00,NE,45,0.0,0.0,100,0.00,CLR,CLR,0.00,WeatherDisplay:10.37,2013-03-12 11:52:00,
2013-03-12 07:57:00,44.6,44.6,0.00,NE,49,2.3,0.0,100,0.00,CLR,CLR,0.00,WeatherDisplay:10.37,2013-03-12 11:57:00,
2013-03-12 08:03:00,44.7,44.7,0.00,SE,130,0.4,0.0,100,0.00,CLR,CLR,0.00,WeatherDisplay:10.37,2013-03-12 12:03:00,
2013-03-12 08:08:00,44.9,44.9,0.00,SE,130,0.0,0.0,100,0.00,CLR,CLR,0.00,WeatherDisplay:10.37,2013-03-12 12:08:00,
2013-03-12 08:14:00,45.0,45.0,0.00,North,6,0.0,0.0,100,0.00,CLR,CLR,0.00,WeatherDisplay:10.37,2013-03-12 12:14:00,
2013-03-12 08:19:00,45.2,45.2,0.00,NNE,18,2.3,2.3,100,0.00,CLR,CLR,0.00,WeatherDisplay:10.37,2013-03-12 12:19:00,
2013-03-12 08:24:00,45.3,45.3,0.00,NE,34,0.0,0.0,100,0.00,CLR,CLR,0.00,WeatherDisplay:10.37,2013-03-12 12:24:00,
2013-03-12 08:30:00,45.4,45.4,0.00,NE,37,0.0,0.0,100,0.00,CLR,CLR,0.00,WeatherDisplay:10.37,2013-03-12 12:30:00,
2013-03-12 08:35:00,45.6,45.6,0.00,WNW,291,2.3,2.3,100,0.00,CLR,CLR,0.00,WeatherDisplay:10.37,2013-03-12 12:35:00,
2013-03-12 08:40:00,45.8,45.8,0.00,NNW,347,0.0,0.0,100,0.00,CLR,CLR,0.00,WeatherDisplay:10.37,2013-03-12 12:40:00,
2013-03-12 08:45:00,46.0,46.0,0.00,ENE,64,1.2,1.2,100,0.00,CLR,CLR,0.00,WeatherDisplay:10.37,2013-03-12 12:45:00,
2013-03-12 08:51:00,46.2,46.2,0.00,SW,229,1.2,1.2,100,0.00,CLR,CLR,0.00,WeatherDisplay:10.37,2013-03-12 12:51:00,
2013-03-12 08:56:00,46.3,46.3,0.00,WNW,292,1.2,1.2,100,0.00,CLR,CLR,0.00,WeatherDisplay:10.37,2013-03-12 12:56:00,
2013-03-12 09:01:00,46.5,46.5,0.00,SSE,151,0.0,0.0,100,0.00,CLR,CLR,0.00,WeatherDisplay:10.37,2013-03-12 13:01:00,
2013-03-12 09:06:00,46.7,46.7,0.00,WSW,254,1.7,1.7,100,0.00,CLR,CLR,0.00,WeatherDisplay:10.37,2013-03-12 13:06:00,
2013-03-12 09:11:00,46.8,46.8,0.00,West,274,0.0,0.0,100,0.00,CLR,CLR,0.00,WeatherDisplay:10.37,2013-03-12 13:11:00,
2013-03-12 09:17:00,47.0,47.0,0.00,NNE,13,2.3,2.3,100,0.00,CLR,CLR,0.00,WeatherDisplay:10.37,2013-03-12 13:17:00,
2013-03-12 09:22:00,47.1,47.1,0.00,NNE,14,2.3,2.3,100,0.00,CLR,CLR,0.00,WeatherDisplay:10.37,2013-03-12 13:22:00,
2013-03-12 09:27:00,47.2,47.2,0.00,North,352,2.3,2.3,100,0.00,CLR,CLR,0.00,WeatherDisplay:10.37,2013-03-12 13:27:00,
2013-03-12 09:32:00,47.4,47.4,0.00,NE,40,0.4,0.4,100,0.00,CLR,CLR,0.00,WeatherDisplay:10.37,2013-03-12 13:32:00,
2013-03-12 09:38:00,47.5,47.5,0.00,SW,215,0.0,0.0,100,0.00,CLR,CLR,0.00,WeatherDisplay:10.37,2013-03-12 13:38:00,
2013-03-12 09:43:00,47.6,47.6,0.00,WNW,291,2.3,2.3,100,0.00,CLR,CLR,0.00,WeatherDisplay:10.37,2013-03-12 13:43:00,
2013-03-12 09:48:00,47.8,47.8,0.00,WSW,254,0.0,0.0,100,0.00,CLR,CLR,0.00,WeatherDisplay:10.37,2013-03-12 13:48:00,
2013-03-12 09:54:00,47.9,47.9,0.00,WNW,301,0.0,0.0,100,0.00,CLR,CLR,0.00,WeatherDisplay:10.37,2013-03-12 13:54:00,
2013-03-12 09:59:00,48.0,48.0,0.00,NW,313,0.7,0.7,100,0.00,CLR,CLR,0.00,WeatherDisplay:10.37,2013-03-12 13:59:00,
2013-03-12 10:04:00,48.1,48.1,0.00,West,274,2.3,2.3,100,0.00,CLR,CLR,0.00,WeatherDisplay:10.37,2013-03-12 14:04:00,
2013-03-12 10:10:00,48.2,48.2,0.00,NNE,27,1.7,1.7,100,0.00,CLR,CLR,0.00,WeatherDisplay:10.37,2013-03-12 14:10:00,
2013-03-12 10:15:00,48.3,48.3,0.00,WSW,246,0.0,0.0,100,0.00,CLR,CLR,0.00,WeatherDisplay:10.37,2013-03-12 14:15:00,
2013-03-12 10:20:00,48.4,48.4,0.00,NNW,342,3.5,3.5,100,0.00,CLR,CLR,0.00,WeatherDisplay:10.37,2013-03-12 14:20:00,
2013-03-12 10:25:00,48.5,48.5,0.00,WNW,282,1.7,1.7,100,0.00,CLR,CLR,0.00,WeatherDisplay:10.37,2013-03-12 14:25:00,
2013-03-12 10:30:00,48.8,48.8,0.00,NE,35,3.5,3.5,100,0.00,CLR,CLR,0.00,WeatherDisplay:10.37,2013-03-12 14:30:00,
2013-03-12 10:35:00,48.9,48.9,0.00,South,179,2.3,2.3,100,0.00,CLR,CLR,0.00,WeatherDisplay:10.37,2013-03-12 14:35:00,
2013-03-12 10:40:00,49.1,49.1,0.00,East,97,2.3,2.3,100,0.00,CLR,CLR,0.00,WeatherDisplay:10.37,2013-03-12 14:40:00,
2013-03-12 10:46:00,49.3,49.3,0.00,North,349,2.3,2.3,100,0.00,CLR,CLR,0.00,WeatherDisplay:10.37,2013-03-12 14:46:00,
2013-03-12 10:51:00,49.4,49.4,0.00,NW,323,4.6,4.6,100,0.00,CLR,CLR,0.00,WeatherDisplay:10.37,2013-03-12 14:51:00,
2013-03-12 10:56:00,49.5,49.5,0.00,ENE,61,2.3,2.3,100,0.00,CLR,CLR,0.00,WeatherDisplay:10.37,2013-03-12 14:56:00,
2013-03-12 11:01:00,49.6,49.6,0.00,NE,42,2.3,2.3,100,0.00,CLR,CLR,0.00,WeatherDisplay:10.37,2013-03-12 15:01:00,
2013-03-12 11:06:00,49.8,49.8,0.00,ENE,65,1.2,1.2,100,0.00,CLR,CLR,0.00,WeatherDisplay:10.37,2013-03-12 15:06:00,
2013-03-12 11:12:00,49.9,49.9,0.00,NNE,16,3.5,3.5,100,0.00,CLR,CLR,0.00,WeatherDisplay:10.37,2013-03-12 15:12:00,
2013-03-12 11:17:00,50.1,50.1,0.00,North,6,5.8,5.8,100,0.00,CLR,CLR,0.00,WeatherDisplay:10.37,2013-03-12 15:17:00,
2013-03-12 11:22:00,50.2,50.2,0.00,West,278,2.3,2.3,100,0.00,CLR,CLR,0.00,WeatherDisplay:10.37,2013-03-12 15:22:00,
2013-03-12 11:27:00,50.2,50.2,0.00,NW,304,2.3,2.3,100,0.00,CLR,CLR,0.00,WeatherDisplay:10.37,2013-03-12 15:27:00,
2013-03-12 11:32:00,50.4,50.4,0.00,SE,128,1.3,1.3,100,0.00,CLR,CLR,0.00,WeatherDisplay:10.37,2013-03-12 15:32:00,
2013-03-12 11:38:00,50.5,50.5,0.00,NW,305,3.5,3.5,100,0.00,CLR,CLR,0.00,WeatherDisplay:10.37,2013-03-12 15:38:00,
2013-03-12 11:43:00,50.5,50.5,0.00,SE,137,2.6,2.6,100,0.00,CLR,CLR,0.00,WeatherDisplay:10.37,2013-03-12 15:43:00,
2013-03-12 11:48:00,50.7,50.7,0.00,North,3,2.3,2.3,100,0.00,CLR,CLR,0.00,WeatherDisplay:10.37,2013-03-12 15:48:00,
2013-03-12 11:53:00,50.9,50.9,0.00,WSW,258,3.5,3.5,100,0.00,CLR,CLR,0.00,WeatherDisplay:10.37,2013-03-12 15:53:00,
2013-03-12 11:58:00,51.0,51.0,0.00,NNE,30,3.5,3.5,100,0.00,CLR,CLR,0.00,WeatherDisplay:10.37,2013-03-12 15:58:00,
2013-03-12 12:03:00,51.1,51.1,0.00,East,88,1.2,1.2,100,0.00,CLR,CLR,0.00,WeatherDisplay:10.37,2013-03-12 16:03:00,
2013-03-12 12:09:00,51.2,51.2,0.00,North,353,2.3,2.3,100,0.00,CLR,CLR,0.00,WeatherDisplay:10.37,2013-03-12 16:09:00,
2013-03-12 12:14:00,51.3,51.3,0.00,NW,304,1.2,1.2,100,0.00,CLR,CLR,0.00,WeatherDisplay:10.37,2013-03-12 16:14:00,
2013-03-12 12:19:00,51.4,51.4,0.00,South,189,2.3,2.3,100,0.00,CLR,CLR,0.00,WeatherDisplay:10.37,2013-03-12 16:19:00,
2013-03-12 12:24:00,51.3,51.3,0.00,West,274,3.5,3.5,100,0.00,CLR,CLR,0.00,WeatherDisplay:10.37,2013-03-12 16:24:00,
2013-03-12 12:29:00,51.5,51.5,0.00,NNE,13,1.2,0.0,100,0.00,CLR,CLR,0.00,WeatherDisplay:10.37,2013-03-12 16:29:00,
2013-03-12 12:34:00,51.7,51.7,0.00,SW,222,2.3,2.3,100,0.00,CLR,CLR,0.00,WeatherDisplay:10.37,2013-03-12 16:34:00,
2013-03-12 12:39:00,51.8,51.8,0.00,WSW,241,1.2,1.2,100,0.00,CLR,CLR,0.00,WeatherDisplay:10.37,2013-03-12 16:39:00,
2013-03-12 12:45:00,51.8,51.8,0.00,NNE,13,2.3,2.3,100,0.00,CLR,CLR,0.00,WeatherDisplay:10.37,2013-03-12 16:45:00,
2013-03-12 12:50:00,51.8,51.8,0.00,NNW,328,3.5,3.5,100,0.00,CLR,CLR,0.00,WeatherDisplay:10.37,2013-03-12 16:50:00,
2013-03-12 12:55:00,51.6,51.6,0.00,WNW,288,2.3,2.3,100,0.00,CLR,CLR,0.00,WeatherDisplay:10.37,2013-03-12 16:55:00,
2013-03-12 13:00:00,51.6,51.6,0.00,NNW,345,1.2,1.2,100,0.00,CLR,CLR,0.00,WeatherDisplay:10.37,2013-03-12 17:00:00,
2013-03-12 13:06:00,51.6,51.6,0.00,SW,227,3.7,3.7,100,0.00,CLR,CLR,0.00,WeatherDisplay:10.37,2013-03-12 17:06:00,
2013-03-12 13:11:00,51.1,51.1,0.00,NNE,14,3.5,3.5,100,0.00,CLR,CLR,0.00,WeatherDisplay:10.37,2013-03-12 17:11:00,
2013-03-12 13:16:00,52.3,52.3,0.00,ESE,119,5.8,5.8,100,0.00,CLR,CLR,0.00,WeatherDisplay:10.37,2013-03-12 17:16:00,
2013-03-12 13:21:00,52.1,52.1,0.00,NW,312,4.6,4.6,100,0.00,CLR,CLR,0.00,WeatherDisplay:10.37,2013-03-12 17:21:00,
2013-03-12 13:26:00,52.3,52.3,0.00,NNW,339,3.5,3.5,100,0.00,CLR,CLR,0.00,WeatherDisplay:10.37,2013-03-12 17:26:00,
2013-03-12 13:31:00,52.7,52.7,0.00,SW,226,3.5,3.5,100,0.00,CLR,CLR,0.00,WeatherDisplay:10.37,2013-03-12 17:31:00,
2013-03-12 13:36:00,52.4,52.4,0.00,NNW,330,2.3,2.3,100,0.00,CLR,CLR,0.00,WeatherDisplay:10.37,2013-03-12 17:36:00,
2013-03-12 13:42:00,52.3,52.3,0.00,WNW,298,3.5,3.5,100,0.00,CLR,CLR,0.00,WeatherDisplay:10.37,2013-03-12 17:42:00,
2013-03-12 13:47:00,53.0,53.0,0.00,WNW,296,6.9,6.9,100,0.00,CLR,CLR,0.00,WeatherDisplay:10.37,2013-03-12 17:47:00,
2013-03-12 13:52:00,53.0,53.0,0.00,West,281,2.4,2.4,100,0.00,CLR,CLR,0.00,WeatherDisplay:10.37,2013-03-12 17:52:00,
2013-03-12 13:58:00,53.1,53.1,0.00,North,354,2.3,2.3,100,0.00,CLR,CLR,0.00,WeatherDisplay:10.37,2013-03-12 17:58:00,
2013-03-12 14:03:00,53.2,53.2,0.00,ESE,109,2.3,2.3,100,0.00,CLR,CLR,0.00,WeatherDisplay:10.37,2013-03-12 18:03:00,
2013-03-12 14:08:00,53.1,53.1,0.00,NE,34,3.5,3.5,100,0.00,CLR,CLR,0.00,WeatherDisplay:10.37,2013-03-12 18:08:00,
2013-03-12 14:14:00,53.0,53.0,0.00,West,264,2.3,2.3,100,0.00,CLR,CLR,0.00,WeatherDisplay:10.37,2013-03-12 18:14:00,
2013-03-12 14:19:00,53.3,53.3,0.00,East,95,11.5,11.5,100,0.00,CLR,CLR,0.00,WeatherDisplay:10.37,2013-03-12 18:19:00,
2013-03-12 14:24:00,53.3,53.3,0.00,West,280,5.8,5.8,100,0.00,CLR,CLR,0.00,WeatherDisplay:10.37,2013-03-12 18:24:00,
2013-03-12 14:29:00,53.2,53.2,0.00,NW,319,2.3,2.3,100,0.00,CLR,CLR,0.00,WeatherDisplay:10.37,2013-03-12 18:29:00,
2013-03-12 14:34:00,53.3,53.3,0.00,WSW,246,2.3,2.3,100,0.00,CLR,CLR,0.00,WeatherDisplay:10.37,2013-03-12 18:34:00,
2013-03-12 14:39:00,53.3,53.3,0.00,South,176,2.3,2.3,100,0.00,CLR,CLR,0.00,WeatherDisplay:10.37,2013-03-12 18:39:00,
2013-03-12 14:45:00,53.3,53.3,0.00,West,272,3.5,3.5,100,0.00,CLR,CLR,0.00,WeatherDisplay:10.37,2013-03-12 18:45:00,
2013-03-12 14:50:00,53.3,53.3,0.00,NW,316,2.3,2.3,100,0.00,CLR,CLR,0.00,WeatherDisplay:10.37,2013-03-12 18:50:00,
2013-03-12 14:55:00,53.3,53.3,0.00,North,0,6.9,6.9,100,0.00,CLR,CLR,0.00,WeatherDisplay:10.37,2013-03-12 18:55:00,
2013-03-12 15:00:00,53.2,53.2,0.00,NNE,20,4.3,4.3,100,0.00,CLR,CLR,0.00,WeatherDisplay:10.37,2013-03-12 19:00:00,
2013-03-12 15:05:00,53.2,53.2,0.00,North,360,3.5,3.5,100,0.00,CLR,CLR,0.00,WeatherDisplay:10.37,2013-03-12 19:05:00,
2013-03-12 15:11:00,53.2,53.2,0.00,ESE,102,2.3,2.3,100,0.00,CLR,CLR,0.00,WeatherDisplay:10.37,2013-03-12 19:11:00,
2013-03-12 15:16:00,53.1,53.1,0.00,SW,230,1.2,1.2,100,0.00,CLR,CLR,0.00,WeatherDisplay:10.37,2013-03-12 19:16:00,
2013-03-12 15:21:00,53.1,53.1,0.00,NNW,345,1.2,1.2,100,0.00,CLR,CLR,0.00,WeatherDisplay:10.37,2013-03-12 19:21:00,
2013-03-12 15:26:00,53.1,53.1,0.00,WSW,237,2.3,2.3,100,0.00,CLR,CLR,0.00,WeatherDisplay:10.37,2013-03-12 19:26:00,
2013-03-12 15:31:00,53.0,53.0,0.00,WNW,291,3.5,3.5,100,0.00,CLR,CLR,0.00,WeatherDisplay:10.37,2013-03-12 19:31:00,
2013-03-12 15:36:00,53.0,53.0,0.00,NW,312,4.6,4.6,100,0.00,CLR,CLR,0.00,WeatherDisplay:10.37,2013-03-12 19:36:00,
2013-03-12 15:41:00,52.9,52.9,0.00,West,277,1.2,1.2,100,0.00,CLR,CLR,0.00,WeatherDisplay:10.37,2013-03-12 19:41:00,
2013-03-12 15:47:00,52.8,52.8,0.00,ESE,110,3.5,3.5,100,0.00,CLR,CLR,0.00,WeatherDisplay:10.37,2013-03-12 19:47:00,
2013-03-12 15:52:00,52.8,52.8,0.00,NNE,28,1.3,1.3,100,0.00,CLR,CLR,0.00,WeatherDisplay:10.37,2013-03-12 19:52:00,
2013-03-12 15:57:00,52.7,52.7,0.00,NE,56,5.2,5.2,100,0.00,CLR,CLR,0.00,WeatherDisplay:10.37,2013-03-12 19:57:00,
2013-03-12 16:02:00,52.8,52.8,0.00,NNW,347,4.6,4.6,100,0.00,CLR,CLR,0.00,WeatherDisplay:10.37,2013-03-12 20:02:00,
2013-03-12 16:07:00,52.7,52.7,0.00,West,275,2.3,2.3,100,0.00,CLR,CLR,0.00,WeatherDisplay:10.37,2013-03-12 20:07:00,
2013-03-12 16:12:00,52.6,52.6,0.00,ESE,110,4.6,4.6,100,0.00,CLR,CLR,0.00,WeatherDisplay:10.37,2013-03-12 20:12:00,
2013-03-12 16:18:00,52.6,52.6,0.00,NE,44,3.8,3.8,100,0.00,CLR,CLR,0.00,WeatherDisplay:10.37,2013-03-12 20:18:00,
2013-03-12 16:23:00,52.5,52.5,0.00,NW,319,3.5,3.5,100,0.00,CLR,CLR,0.00,WeatherDisplay:10.37,2013-03-12 20:23:00,
2013-03-12 16:28:00,52.5,52.5,0.00,NE,37,4.6,4.6,100,0.00,CLR,CLR,0.00,WeatherDisplay:10.37,2013-03-12 20:28:00,
2013-03-12 16:33:00,52.5,52.5,0.00,West,267,4.6,4.6,100,0.00,CLR,CLR,0.00,WeatherDisplay:10.37,2013-03-12 20:33:00,
2013-03-12 16:38:00,52.5,52.5,0.00,SW,232,1.2,1.2,100,0.01,RA,RA,0.01,WeatherDisplay:10.37,2013-03-12 20:38:00,
2013-03-12 16:43:00,52.4,52.4,0.00,East,80,3.5,3.5,100,0.01,RA,RA,0.01,WeatherDisplay:10.37,2013-03-12 20:43:00,
2013-03-12 16:49:00,52.7,52.7,0.00,ENE,65,2.3,2.3,100,0.01,CLR,CLR,0.01,WeatherDisplay:10.37,2013-03-12 20:49:00,
2013-03-12 16:54:00,52.5,52.5,0.00,NW,325,2.6,2.6,100,0.01,CLR,CLR,0.01,WeatherDisplay:10.37,2013-03-12 20:54:00,
2013-03-12 16:59:00,52.4,52.4,0.00,ENE,69,3.5,3.5,100,0.01,CLR,CLR,0.01,WeatherDisplay:10.37,2013-03-12 20:59:00,
2013-03-12 17:04:00,52.4,52.4,0.00,WSW,243,2.6,2.6,100,0.01,CLR,CLR,0.01,WeatherDisplay:10.37,2013-03-12 21:04:00,
2013-03-12 17:09:00,52.4,52.4,0.00,WNW,291,3.5,3.5,100,0.02,RA,RA,0.02,WeatherDisplay:10.37,2013-03-12 21:09:00,
2013-03-12 17:14:00,52.4,52.4,0.00,NW,320,3.8,3.8,100,0.02,RA,RA,0.02,WeatherDisplay:10.37,2013-03-12 21:14:00,
2013-03-12 17:19:00,52.3,52.3,0.00,West,274,6.9,6.9,100,0.03,RA,RA,0.03,WeatherDisplay:10.37,2013-03-12 21:19:00,
2013-03-12 17:24:00,52.3,52.3,0.00,ENE,68,6.9,6.9,100,0.03,RA,RA,0.03,WeatherDisplay:10.37,2013-03-12 21:24:00,
2013-03-12 17:29:00,52.2,52.2,0.00,NE,37,4.6,4.6,100,0.04,RA,RA,0.04,WeatherDisplay:10.37,2013-03-12 21:29:00,
2013-03-12 17:35:00,52.3,52.3,0.00,NW,319,4.6,4.6,100,0.04,RA,RA,0.05,WeatherDisplay:10.37,2013-03-12 21:35:00,
2013-03-12 17:40:00,52.3,52.3,0.00,NW,311,7.5,7.5,100,0.04,RA,RA,0.05,WeatherDisplay:10.37,2013-03-12 21:40:00,
2013-03-12 17:45:00,52.3,52.3,0.00,NE,55,5.8,5.8,100,0.05,RA,RA,0.06,WeatherDisplay:10.37,2013-03-12 21:45:00,
2013-03-12 17:50:00,52.3,52.3,0.00,NNE,13,5.8,5.8,100,0.05,RA,RA,0.06,WeatherDisplay:10.37,2013-03-12 21:50:00,
2013-03-12 17:56:00,52.3,52.3,0.00,NW,304,2.3,2.3,100,0.06,RA,RA,0.07,WeatherDisplay:10.37,2013-03-12 21:56:00,
2013-03-12 18:01:00,52.3,52.3,0.00,NNW,337,2.0,8.0,100,0.01,RA,RA,0.08,WeatherDisplay:10.37,2013-03-12 22:01:00,
2013-03-12 18:06:00,52.3,52.3,0.00,North,8,2.7,2.7,100,0.07,RA,RA,0.08,WeatherDisplay:10.37,2013-03-12 22:06:00,
2013-03-12 18:11:00,52.3,52.3,0.00,South,169,2.3,2.3,100,0.07,RA,RA,0.09,WeatherDisplay:10.37,2013-03-12 22:11:00,
2013-03-12 18:16:00,52.2,52.2,0.00,NNE,17,6.9,6.9,100,0.07,RA,RA,0.09,WeatherDisplay:10.37,2013-03-12 22:16:00,
2013-03-12 18:21:00,52.2,52.2,0.00,WSW,244,5.8,5.8,100,0.08,RA,RA,0.11,WeatherDisplay:10.37,2013-03-12 22:21:00,
2013-03-12 18:27:00,52.2,52.2,0.00,WNW,282,6.9,6.9,100,0.09,RA,RA,0.12,WeatherDisplay:10.37,2013-03-12 22:27:00,
2013-03-12 18:32:00,52.3,52.3,0.00,North,8,4.6,4.6,100,0.09,RA,RA,0.13,WeatherDisplay:10.37,2013-03-12 22:32:00,
2013-03-12 18:37:00,52.2,52.2,0.00,ESE,120,3.5,3.5,100,0.10,RA,RA,0.15,WeatherDisplay:10.37,2013-03-12 22:37:00,
2013-03-12 18:42:00,52.2,52.2,0.00,WSW,253,5.8,5.8,100,0.11,RA,RA,0.17,WeatherDisplay:10.37,2013-03-12 22:42:00,
2013-03-12 18:48:00,52.2,52.2,0.00,West,280,3.3,3.3,100,0.14,RA,RA,0.20,WeatherDisplay:10.37,2013-03-12 22:48:00,
2013-03-12 18:53:00,52.1,52.1,0.00,East,95,4.6,4.6,100,0.16,RA,RA,0.22,WeatherDisplay:10.37,2013-03-12 22:53:00,
2013-03-12 18:58:00,52.2,52.2,0.00,SW,236,5.8,5.8,100,0.18,RA,RA,0.25,WeatherDisplay:10.37,2013-03-12 22:58:00,
2013-03-12 19:03:00,52.1,52.1,0.00,NE,51,2.3,2.3,100,0.19,RA,RA,0.27,WeatherDisplay:10.37,2013-03-12 23:03:00,
2013-03-12 19:09:00,52.1,52.1,0.00,NNW,330,3.5,3.5,100,0.21,RA,RA,0.29,WeatherDisplay:10.37,2013-03-12 23:09:00,
2013-03-12 19:14:00,52.1,52.1,0.00,NE,54,1.2,1.2,100,0.23,RA,RA,0.32,WeatherDisplay:10.37,2013-03-12 23:14:00,
2013-03-12 19:19:00,52.1,52.1,0.00,ESE,110,5.5,5.5,100,0.25,RA,RA,0.35,WeatherDisplay:10.37,2013-03-12 23:19:00,
2013-03-12 19:24:00,52.0,52.0,0.00,East,85,2.3,2.3,100,0.26,RA,RA,0.38,WeatherDisplay:10.37,2013-03-12 23:24:00,
2013-03-12 19:30:00,52.0,52.0,0.00,West,274,4.6,4.6,100,0.29,RA,RA,0.41,WeatherDisplay:10.37,2013-03-12 23:30:00,
2013-03-12 19:35:00,52.1,52.1,0.00,ENE,66,8.0,8.0,100,0.31,RA,RA,0.45,WeatherDisplay:10.37,2013-03-12 23:35:00,
2013-03-12 19:40:00,52.1,52.1,0.00,North,0,3.5,3.5,100,0.30,RA,RA,0.46,WeatherDisplay:10.37,2013-03-12 23:40:00,
2013-03-12 19:45:00,52.1,52.1,0.00,West,271,3.8,3.8,100,0.29,RA,RA,0.47,WeatherDisplay:10.37,2013-03-12 23:45:00,
2013-03-12 19:51:00,52.1,52.1,0.00,NNW,337,3.5,3.5,100,0.28,RA,RA,0.49,WeatherDisplay:10.37,2013-03-12 23:51:00,
2013-03-12 19:56:00,52.2,52.2,0.00,North,11,2.1,2.1,100,0.25,RA,RA,0.49,WeatherDisplay:10.37,2013-03-12 23:56:00,
2013-03-12 20:02:00,52.2,52.2,0.00,East,79,2.3,2.3,100,0.23,CLR,CLR,0.50,WeatherDisplay:10.37,2013-03-13 00:02:00,
2013-03-12 20:07:00,52.2,52.2,0.00,North,6,2.3,2.3,100,0.22,RA,RA,0.50,WeatherDisplay:10.37,2013-03-13 00:07:00,
2013-03-12 20:12:00,52.2,52.2,0.00,NW,323,1.2,1.2,100,0.19,CLR,CLR,0.50,WeatherDisplay:10.37,2013-03-13 00:12:00,
2013-03-12 20:17:00,52.3,52.3,0.00,West,278,3.5,3.5,100,0.16,CLR,CLR,0.50,WeatherDisplay:10.37,2013-03-13 00:17:00,
2013-03-12 20:22:00,52.4,52.4,0.00,NNE,30,3.5,0.0,100,0.14,CLR,CLR,0.50,WeatherDisplay:10.37,2013-03-13 00:22:00,
2013-03-12 20:27:00,52.5,52.5,0.00,North,7,4.6,4.6,100,0.11,CLR,CLR,0.50,WeatherDisplay:10.37,2013-03-13 00:27:00,
2013-03-12 20:33:00,52.7,52.7,0.00,North,3,0.0,0.0,100,0.07,CLR,CLR,0.50,WeatherDisplay:10.37,2013-03-13 00:33:00,
2013-03-12 20:38:00,52.7,52.7,0.00,West,264,2.3,2.3,100,0.04,CLR,CLR,0.50,WeatherDisplay:10.37,2013-03-13 00:38:00,
2013-03-12 20:43:00,52.7,52.7,0.00,NNE,21,2.3,2.3,100,0.03,CLR,CLR,0.50,WeatherDisplay:10.37,2013-03-13 00:43:00,
2013-03-12 20:48:00,52.8,52.8,0.00,North,350,6.9,6.9,100,0.02,CLR,CLR,0.50,WeatherDisplay:10.37,2013-03-13 00:48:00,
2013-03-12 20:53:00,52.8,52.8,0.00,North,8,2.3,2.3,100,0.01,CLR,CLR,0.50,WeatherDisplay:10.37,2013-03-13 00:53:00,
2013-03-12 20:59:00,52.8,52.8,0.00,NNE,20,4.6,4.6,100,0.01,CLR,CLR,0.50,WeatherDisplay:10.37,2013-03-13 00:59:00,
2013-03-12 21:04:00,52.8,52.8,0.00,South,178,5.8,5.8,100,0.00,CLR,CLR,0.50,WeatherDisplay:10.37,2013-03-13 01:04:00,
2013-03-12 21:09:00,52.8,52.8,0.00,WNW,288,3.5,3.5,100,0.00,CLR,CLR,0.50,WeatherDisplay:10.37,2013-03-13 01:09:00,
2013-03-12 21:15:00,52.9,52.9,0.00,NNE,27,2.8,2.8,100,0.00,CLR,CLR,0.50,WeatherDisplay:10.37,2013-03-13 01:15:00,
2013-03-12 21:20:00,52.9,52.9,0.00,NE,54,0.0,0.0,100,0.00,CLR,CLR,0.50,WeatherDisplay:10.37,2013-03-13 01:20:00,
2013-03-12 21:25:00,52.8,52.8,0.00,West,264,0.0,0.0,100,0.00,CLR,CLR,0.50,WeatherDisplay:10.37,2013-03-13 01:25:00,
2013-03-12 21:30:00,52.8,52.8,0.00,WNW,286,0.0,4.0,100,0.00,CLR,CLR,0.50,WeatherDisplay:10.37,2013-03-13 01:30:00,
2013-03-12 21:35:00,52.8,52.8,0.00,NNW,339,5.8,5.8,100,0.00,CLR,CLR,0.50,WeatherDisplay:10.37,2013-03-13 01:35:00,
2013-03-12 21:41:00,52.7,52.7,0.00,ENE,68,0.0,0.0,100,0.00,CLR,CLR,0.50,WeatherDisplay:10.37,2013-03-13 01:41:00,
2013-03-12 21:46:00,52.7,52.7,0.00,WNW,298,4.6,4.6,100,0.00,CLR,CLR,0.50,WeatherDisplay:10.37,2013-03-13 01:46:00,
2013-03-12 21:51:00,52.7,52.7,0.00,WNW,298,0.0,0.0,100,0.00,CLR,CLR,0.50,WeatherDisplay:10.37,2013-03-13 01:51:00,
2013-03-12 21:57:00,52.7,52.7,0.00,ESE,123,3.5,3.5,100,0.00,CLR,CLR,0.50,WeatherDisplay:10.37,2013-03-13 01:57:00,
2013-03-12 22:02:00,52.6,52.6,0.00,SW,216,0.0,0.0,100,0.00,CLR,CLR,0.50,WeatherDisplay:10.37,2013-03-13 02:02:00,
2013-03-12 22:07:00,52.6,52.6,0.00,WSW,251,0.0,0.0,100,0.00,CLR,CLR,0.50,WeatherDisplay:10.37,2013-03-13 02:07:00,
2013-03-12 22:12:00,52.6,52.6,0.00,NNE,17,0.0,0.0,100,0.00,CLR,CLR,0.50,WeatherDisplay:10.37,2013-03-13 02:12:00,
2013-03-12 22:17:00,52.5,52.5,0.00,SSE,150,2.3,0.0,100,0.00,CLR,CLR,0.50,WeatherDisplay:10.37,2013-03-13 02:17:00,
2013-03-12 22:23:00,52.4,52.4,0.00,WSW,257,6.9,6.9,100,0.00,CLR,CLR,0.50,WeatherDisplay:10.37,2013-03-13 02:23:00,
2013-03-12 22:28:00,52.4,52.4,0.00,NNE,18,2.3,2.3,100,0.00,CLR,CLR,0.50,WeatherDisplay:10.37,2013-03-13 02:28:00,
2013-03-12 22:33:00,52.4,52.4,0.00,South,181,0.0,0.0,100,0.00,CLR,CLR,0.50,WeatherDisplay:10.37,2013-03-13 02:33:00,
2013-03-12 22:38:00,52.3,52.3,0.00,WSW,251,5.8,5.8,100,0.00,CLR,CLR,0.50,WeatherDisplay:10.37,2013-03-13 02:38:00,
2013-03-12 22:43:00,52.3,52.3,0.00,ESE,119,0.0,0.0,100,0.00,CLR,CLR,0.50,WeatherDisplay:10.37,2013-03-13 02:43:00,
2013-03-12 22:48:00,52.2,52.2,0.00,ESE,120,0.0,0.0,100,0.00,CLR,CLR,0.50,WeatherDisplay:10.37,2013-03-13 02:48:00,
2013-03-12 22:54:00,52.2,52.2,0.00,ESE,120,0.0,0.0,100,0.00,CLR,CLR,0.50,WeatherDisplay:10.37,2013-03-13 02:54:00,
2013-03-12 22:59:00,52.2,52.2,0.00,ESE,120,0.0,0.0,100,0.00,CLR,CLR,0.50,WeatherDisplay:10.37,2013-03-13 02:59:00,
2013-03-12 23:04:00,52.1,52.1,0.00,ESE,120,0.0,0.0,100,0.00,CLR,CLR,0.50,WeatherDisplay:10.37,2013-03-13 03:04:00,
2013-03-12 23:09:00,52.1,52.1,0.00,ESE,120,0.0,0.0,100,0.00,CLR,CLR,0.50,WeatherDisplay:10.37,2013-03-13 03:09:00,
2013-03-12 23:14:00,52.0,52.0,0.00,ESE,120,0.0,0.0,100,0.00,CLR,CLR,0.50,WeatherDisplay:10.37,2013-03-13 03:14:00,
2013-03-12 23:19:00,52.0,52.0,0.00,ESE,120,0.0,0.0,100,0.00,CLR,CLR,0.50,WeatherDisplay:10.37,2013-03-13 03:19:00,
2013-03-12 23:25:00,52.0,52.0,0.00,West,263,0.0,0.0,100,0.00,CLR,CLR,0.50,WeatherDisplay:10.37,2013-03-13 03:25:00,
2013-03-12 23:30:00,51.9,51.9,0.00,West,263,0.0,0.0,100,0.00,CLR,CLR,0.50,WeatherDisplay:10.37,2013-03-13 03:30:00,
2013-03-12 23:35:00,51.9,51.9,0.00,WNW,288,1.7,1.7,100,0.00,CLR,CLR,0.50,WeatherDisplay:10.37,2013-03-13 03:35:00,
2013-03-12 23:40:00,51.9,51.9,0.00,WSW,244,10.4,10.4,100,0.00,CLR,CLR,0.50,WeatherDisplay:10.37,2013-03-13 03:40:00,
2013-03-12 23:45:00,51.7,51.7,0.00,WNW,295,11.5,11.5,100,0.00,CLR,CLR,0.50,WeatherDisplay:10.37,2013-03-13 03:45:00,
2013-03-12 23:50:00,51.2,51.2,0.00,WSW,246,11.5,11.5,100,0.00,CLR,CLR,0.50,WeatherDisplay:10.37,2013-03-13 03:50:00,
2013-03-12 23:55:00,50.9,50.9,0.00,West,261,9.2,9.2,100,0.00,CLR,CLR,0.50,WeatherDisplay:10.37,2013-03-13 03:55:00,